Regional Weather Roundup
Issued by NWS

Home | Current Version | Previous Version | Text Only | Print | Product List | Glossary Off
Versions: 1 2 3 4 5 6 7 8 9 10 11 12 13 14 15 16 17 18 19 20 21 22 23 24 25 26 27 28 29 30 31 32 33 34 35 36 37 38 39 40 41 42 43 44 45 46 47 48 49 50

000
ASUS43 KMKX 062000
RWRWI

WISCONSIN REGIONAL WEATHER ROUNDUP
NATIONAL WEATHER SERVICE MILWAUKEE/SULLIVAN WI
300 PM CDT FRI MAY 06 2016

NOTE: "FAIR" INDICATES FEW OR NO CLOUDS BELOW 12,000 FEET WITH NO
SIGNIFICANT WEATHER AND/OR OBSTRUCTIONS TO VISIBILITY.

WIZ001-002-006>008-014>016-023>028-062100-
NORTHWEST WISCONSIN

CITY           SKY/WX    TMP DP  RH WIND       PRES   REMARKS
SUPERIOR ARPT  MOSUNNY   90  45  21 W12G24    29.63F HX  86
ASHLAND        MOSUNNY   91  43  18 SW14G21   29.65F HX  87
HAYWARD        SUNNY     88  41  19 SW15G30   29.71F HX  84
SIREN          SUNNY     88  47  24 SW14G22   29.73F HX  85
CUMBERLAND     MOSUNNY   86  43  22 SW20      29.75F HX  83
RICE LAKE      SUNNY     88  41  19 SW20G25   29.77F HX  84
CHETEK         SUNNY     87  51  29 W9G18     29.76F HX  84
LADYSMITH      SUNNY     87  42  20 W13G18    29.77F HX  84
EAU CLAIRE     NOT AVBL
MENOMONIE      SUNNY     90  46  22 SW16G23   29.76F HX  86
NEW RICHMOND   SUNNY     86  47  26 SW10      29.75F HX  83
OSCEOLA        MOSUNNY   87  48  26 S14G20    29.77F HX  84
$$

WIZ003>005-009-010-017-018-062100-
NORTH CENTRAL WISCONSIN

CITY           SKY/WX    TMP DP  RH WIND       PRES   REMARKS
MANITOWISH WTR MOSUNNY   86  37  17 W12G22    29.73F HX  83
ARBOR VITAE    SUNNY     88  27  11 W10G17    29.74F HX  84
WOODRUFF       SUNNY     88  27  11 W10G17    29.74F HX  84
RHINELANDER    SUNNY     87  34  15 SW13G20   29.75F HX  84
EAGLE RIVER      N/A     86  28  12 W14G24    29.74F HX  83
LAND O LAKES   MOSUNNY   87  28  11 W13G21    29.74F HX  83
PHILLIPS       SUNNY     86  42  21 W9G20     29.74F HX  83
TOMAHAWK       SUNNY     86  31  14 SW9       29.76F HX  83
MEDFORD        SUNNY     83  46  27 SW12G18   29.78F HX  81
MERRILL        SUNNY     87  42  20 W13G23    29.76F HX  83
$$

WIZ029-030-035-036-043>047-062100-
CENTRAL WISCONSIN

CITY           SKY/WX    TMP DP  RH WIND       PRES   REMARKS
WAUSAU         SUNNY     88  41  19 W12G20    29.75F HX  84
MOSINEE        SUNNY     84  43  23 SW12G17   29.79F HX  82
MARSHFIELD     SUNNY     88  42  20 W10G20    29.77F HX  84
STEVENS POINT  SUNNY     83  47  28 W8        29.79F HX  81
WAUPACA        SUNNY     88  39  17 W12G17    29.78F HX  84
WAUTOMA        SUNNY     87  45  23 VRB7G17   29.78F HX  84
WISC RAPIDS    SUNNY     89  34  14 W13G22    29.79F HX  85
CAMP DOUGLAS   NOT AVBL
$$

WIZ011>013-019>022-031-037>040-048>050-062100-
NORTHEAST WISCONSIN

CITY           SKY/WX    TMP DP  RH WIND       PRES   REMARKS
ANTIGO         SUNNY     83  48  29 W10G20    29.78F HX  81
SHAWANO        SUNNY     87  44  22 S6        29.76F HX  84
OCONTO         SUNNY     78  50  37 S12       29.76F
STURGEON BAY   SUNNY     66  45  45 S17G24    29.81F
GREEN BAY      SUNNY     83  46  27 VRB3      29.77F HX  81
MANITOWOC      NOT AVBL
APPLETON       MOSUNNY   82  39  21 W14       29.78F HX  80
CLINTONVILLE   SUNNY     86  43  22 SW6       29.77F HX  83
OSHKOSH        SUNNY     81  47  30 W9        29.79F HX  80
$$

WIZ032>034-041-042-053>061-062100-
SOUTHWEST WISCONSIN

CITY           SKY/WX    TMP DP  RH WIND       PRES   REMARKS
LA CROSSE      SUNNY     90  40  17 W10       29.78F HX  86
SPARTA         SUNNY     87  40  19 W10G21    29.81F HX  84
VIROQUA        SUNNY     87  36  16 W17G24    29.84F HX  83
BOSCOBEL       SUNNY     90  43  19 W10G17    29.82F HX  86
PRAIRIE DU CHI SUNNY     88  34  15 SW15G21   29.83F HX  84
PLATTEVILLE    SUNNY     83  47  28 W10G17    29.88F HX  81
$$

WIZ056-057-062-063-064-067-068-062100-
SOUTH CENTRAL WISCONSIN

CITY           SKY/WX    TMP DP  RH WIND       PRES   REMARKS
REEDSBURG      SUNNY     84  50  30 W8        29.83F HX  82
BARABOO/DELLS  SUNNY     84  43  23 W13       29.83F HX  82
LONE ROCK      NOT AVBL
MINERAL POINT  SUNNY     82  43  24 W12G17    29.87F HX  80
MADISON        MOSUNNY   81  49  32 SW8       29.83F HX  80
MIDDLETON      SUNNY     83  49  30 W9        29.85F HX  81
WATERTOWN      SUNNY     81  49  32 W8        29.83F HX  80
MONROE         SUNNY     79  45  29 SW18      29.88F
JANESVILLE     MOSUNNY   84  46  26 W9        29.85F HX  82
$$

WIZ051-052-058>065-066-070>072-062100-
SOUTHEAST WISCONSIN

CITY           SKY/WX    TMP DP  RH WIND       PRES   REMARKS
MILWAUKEE      MOSUNNY   82  46  28 SW10      29.82F HX  80
WAUKESHA       MOSUNNY   79  45  29 W8        29.84F
MILWAUKEE/TIMM NOT AVBL
RACINE         SUNNY     71  43  36 S12       29.85F
BURLINGTON     SUNNY     82  45  26 W13       29.84F HX  80
KENOSHA        SUNNY     81  49  32 SW9G22    29.84F HX  80
FOND DU LAC    SUNNY     81  45  28 W10       29.80F HX  80
SHEBOYGAN      SUNNY     72  48  42 SE12      29.81F
WEST BEND      SUNNY     81  43  26 W13       29.82F
JUNEAU         SUNNY     80  45  29 W9G16     29.84F
$$

LSZ147-162-062100-
LAKE SUPERIOR

STATION/POSITION TIME  TEMP    WIND        PRES    WAVE
                       AIR SEA DIR/SP/G            HT/PER
                 (UTC) (F)     (DEG/KT/KT) (MB)    (FT/S)
W MID LAKE BUOY  1850   48 37  200/ 12/ 12 1004.0F   0
DEVILS ISLAND    1900   73     230/ 19/ 22 1003.3F
SAXON HARBOR     1900   88     270/  6/ 17 1004.4F
$$

LMZ867-665-643>646-062100-
LAKE MICHIGAN

STATION/POSITION TIME  TEMP    WIND        PRES    WAVE
                       AIR SEA DIR/SP/G            HT/PER
                 (UTC) (F)     (DEG/KT/KT) (MB)    (FT/S)
CHAMBERS ISLAND  1900   71     160/  8/ 16 1008.8F
N MID LAKE BUOY  1850   44 39  180/ 14/ 16 1009.9F   2/ 4
NORTHPORT PIER   1900   54     150/ 11/ 15 1009.5F
SISTER BAY       1919   67     180/ 17/ 20   N/A
ALGOMA LAKESHORE 1915          210/ 15/ 17   N/A
KEWAUNEE LAKESHO 1900   47     170/ 15/ 17 1009.5F
SHEBOYGAN LAKESH 1900   48     160/ 18/ 19 1010.7F
PORT WASHINGTON  1900   56     180/  5/ 10 1011.2
MILWAUKEE LAKESH 1910   53     140/ 16/ 18   N/A
S MID LAKE BUOY  1850   45 41  150/ 12/ 14 1012.3F   1
KENOSHA   LAKESH 1900   54     170/ 10/ 15 1011.2F
$$

TC  - TEMPERATURE IN CELSIUS
VSB - VISIBILITY IN STATUTE MILES
WCI - WIND CHILL INDEX
HX  - HEAT INDEX





USA.gov is the U.S. government's official web portal to all federal, state and local government web resources and services.